Regional Weather Roundup
Issued by NWS Midland/Odessa, TX

Skip options and go directly to product.
Home | Oldest Version | Previous Version | Current Version | All | Graphics & Text | Save Text | Print | Product List | Glossary On

Skip product version selection by date and time.   
551
ASUS44 KMAF 011210
RWRMAF
MIDLAND AREA WEATHER ROUNDUP
NATIONAL WEATHER SERVICE MIDLAND TX
700 AM CDT TUE SEP 01 2015

...IN SOUTHWEST TEXAS AND SOUTHEAST NEW MEXICO...

CITY           SKY/WX    TMP DP  RH WIND       PRES   REMARKS
ALPINE         CLEAR     61  52  72 SW3       30.16S
ANDREWS        FAIR      64  57  77 S8        30.05S
ARTESIA        CLEAR     66  52  59 CALM      30.05R
BIG SPRING     CLEAR     68  60  75 SE9       30.06S
CARLSBAD       CLEAR     67  52  58 S7        30.00S
DRYDEN           N/A     69  62  78 NW6       30.01R
FORT STOCKTON  CLEAR     69  61  75 SE12      30.02S
GUAD PASS      CLEAR     72  40  31 SW9       30.15S
HOBBS          CLEAR     64  55  72 SE7       30.07R
MARFA          CLEAR     54  46  76 N5        30.14S
MIDLAND AIRPK  CLEAR     71  61  70 S7        30.05R
MIDLAND INTL   CLEAR     71  61  70 S7        30.04R
ODESSA         CLEAR     71  60  68 S10       30.05R
PECOS          CLEAR     69  55  62 E8        29.98S
PRESIDIO       NOT AVBL
SEMINOLE       CLEAR     62  55  76 SE3       30.06S
SNYDER         CLEAR     68  59  72 S5        30.05R
WINK           CLEAR     71  60  68 SE13      30.00R
$$
...OTHER STATIONS IN TEXAS...

CITY           SKY/WX    TMP DP  RH WIND       PRES   REMARKS
ABILENE        CLEAR     72  65  78 S9        30.02R
AMARILLO       CLEAR     65  55  70 S14       30.06S
AUSTIN         CLOUDY    71  70  96 E5        30.00S
BROWNSVILLE    CLEAR     72  71  97 NE6       29.94S
CORPUS CHRISTI MOCLDY    76  73  91 SE10      29.97R
DALLAS FTW     PTCLDY    75  69  81 S7        30.01S
DEL RIO        CLEAR     73  69  87 SE7       29.97R
EL PASO        PTCLDY    74  47  38 N5        30.03R
HOUSTON INT    PTCLDY    72  71  97 CALM      30.02R
LUBBOCK        PTCLDY    64  56  75 S8        30.07R
SAN ANGELO     CLEAR     71  65  81 SE3       30.02S
SAN ANTONIO    MOCLDY    76  72  87 E3        29.99S
WACO           CLEAR     71  68  90 SE6       30.01S
WICHITA FALLS  NOT AVBL
$$
...OTHER LOCATIONS IN NEW MEXICO...

CITY           SKY/WX    TMP DP  RH WIND       PRES   REMARKS
ALAMAGORDO     PTCLDY    68  46  45 SW5       30.06R
ALBUQUERQUE    PTCLDY    66  48  52 SE6       30.17R
CANNON AFB     CLEAR     66  53  63 W5        30.09R
CLOVIS         CLEAR     63  52  67 SW8       30.09S
HOLLOMAN AFB   PTCLDY    64  49  58 N9        30.04R
ROSWELL        CLEAR     66  50  56 N3        30.04R
RUIDOSO        CLEAR     61  45  55 MISG      30.27S
SANTA FE       MOCLDY    58  50  75 N8        30.22R
TRUTH OR CONSE CLEAR     67  50  54 NW7       30.12R
TUCUMCARI      MOCLDY    70  48  45 W8        30.04R
$$

USA.gov is the U.S. government's official web portal to all federal, state and local government web resources and services.